Regional Weather Roundup
Issued by NWS Midland/Odessa, TX

Skip options and go directly to product.
Home | Oldest Version | Previous Version | Current Version | All | Graphics & Text | Save Text | Print | Product List | Glossary On

Skip product version selection by date and time.   
916
ASUS44 KMAF 141701
RWRMAF
MIDLAND AREA WEATHER ROUNDUP
NATIONAL WEATHER SERVICE MIDLAND TX
1100 AM CST SUN FEB 14 2016

...IN SOUTHWEST TEXAS AND SOUTHEAST NEW MEXICO...

CITY           SKY/WX    TMP DP  RH WIND       PRES   REMARKS
ALPINE         MOSUNNY   73  16  11 W14       30.09S
ANDREWS        FAIR      52  30  43 NE17G23   30.03S
ARTESIA        SUNNY     55  27  33 N8G17     30.12R
BIG SPRING     PTSUNNY   52  35  51 N12       30.01S
CARLSBAD       CLOUDY    53  24  32 N8        30.08R
DRYDEN           N/A     59  48  67 VRB6      29.98F
FORT STOCKTON  CLOUDY    68  23  18 NW14      30.01R
GUAD PASS      CLOUDY    56  12  17 E17       30.11R
HOBBS          SUNNY     50  25  37 NE16      30.07R
MARFA          CLOUDY    68  19  15 SW6       30.08F
MIDLAND AIRPK  CLOUDY    54  34  46 N15G21    30.02S
MIDLAND INTL   CLOUDY    56  33  42 NE18      30.01S
ODESSA         PTSUNNY   55  32  41 NE18      30.02F
PECOS          MOSUNNY   55  37  50 N17       30.04R
PRESIDIO       FAIR      59  23  25 SE6       30.03S
SEMINOLE       CLOUDY    52  27  38 NE16G22   30.05S
SNYDER           N/A     52  36  53 N10       29.99R
WINK           MOSUNNY   59  32  36 NE16      30.02F
$$
...OTHER STATIONS IN TEXAS...

CITY           SKY/WX    TMP DP  RH WIND       PRES   REMARKS
ABILENE        CLOUDY    60  48  64 W12       29.95F
AMARILLO       CLOUDY    47  27  45 N13       30.06S
AUSTIN         CLOUDY    65  58  78 S15       30.00F
BROWNSVILLE    PTSUNNY   75  59  57 S23       30.03F
CORPUS CHRISTI PTSUNNY   75  55  49 S26G36    30.02S
DALLAS FTW     CLOUDY    63  52  67 S13       29.95S
DEL RIO        CLOUDY    62  53  72 VRB5      29.98F
EL PASO        MOSUNNY   61  14  16 N3        30.06S
HOUSTON INT    PTSUNNY   70  53  54 S10G22    30.05F
LUBBOCK        CLOUDY    55  23  28 NE20G28   30.02S
SAN ANGELO     MOSUNNY   64  51  62 SW14      29.96S
SAN ANTONIO    CLOUDY    62  56  80 S14       30.02S
WACO           CLOUDY    64  54  69 S17G25    29.97F
WICHITA FALLS  NOT AVBL
$$
...OTHER LOCATIONS IN NEW MEXICO...

CITY           SKY/WX    TMP DP  RH WIND       PRES   REMARKS
ALAMAGORDO     SUNNY     54  16  22 S3        30.09R
ALBUQUERQUE    MOSUNNY   52  17  25 CALM      30.14F
CANNON AFB     MOSUNNY   46  20  35 E14       30.10R
CLOVIS         CLOUDY    46  21  36 NE15      30.10S
HOLLOMAN AFB   SUNNY     52  14  21 SE2       30.08R
ROSWELL        SUNNY     54  22  28 N16       30.11R
RUIDOSO          N/A     54   7  15 NW10G16   30.17R
SANTA FE       SUNNY     49  20  31 SW7       30.11F
TRUTH OR CONSE SUNNY     58  13  17 NE9       30.11R
TUCUMCARI      MOSUNNY   45  21  38 E5        30.09F
$$

USA.gov is the U.S. government's official web portal to all federal, state and local government web resources and services.